Location: Newark
(44.3681°N, 100.3364°W)
Time: 14:34:52
(UTC+00:00)

Explorer 7 - Pass Details

Date: 19 February 2020
Orbit: 485 x 679 km, 50.3° (Epoch: 05 April)

Event Time Altitude Azimuth Distance (km) Brightness Sun altitude
Rises 01:55:53 0° 295° (WNW) 2,696 11.6 -18.8°
Reaches altitude 10° 01:58:13 10° 290° (WNW) 1,770 10.5 -19.2°
Maximum altitude 02:02:04 48° 216° (SW) 673 7.4 -19.9°
Enters shadow 02:03:19 33° 165° (SSE) 855 7.6 -20.2°
Drops below altitude 10° 02:05:44 10° 142° (SE) 1,685 - -20.6°
Sets 02:07:54 0° 136° (SE) 2,549 - -21.0°
